Zhongzi 02 zu 01 xing

operational
NORAD ID: 49018 Int'l Des: 2021-064 Owner: NINGX/CASC Country: CN
LEOCIRCULAR

Über Zhongzi 02 zu 01 xing

Beschreibung wird geladen...

Live-Position

3D-Globus wird geladen...

Nächste Überflüge

Höhenverlauf

Altitude vs Time

uPlot chart will show altitude changes over time

Zweizeiliger Elementsatz

1 49018U 21064A 26063.58289733 -.00000181 00000-0 -28052-4 0 9990
2 49018 45.0018 339.6671 0007103 84.4202 275.7444 14.08515261239468
Epoch: 4. März 2026 • Age: 18 hours

Aktueller Status

Höhe 875.5 km
Geschwindigkeit 7.41 km/s
Subsatellitenpunkt -27.60°S, 111.08°E
Startdatum 9. Juli 2021
Alter 4.6 years
Typ other

Technische Details

Klassifizierung Payload
Masse 100.00 kg
Trockenmasse 100.00 kg
Gesamtmasse 100.00 kg
Länge 0.50 m
Durchmesser 0.20 m
Spannweite 1.00 m
Form Box + 2 pan
Hersteller DFHZ
Bus-Typ NX-1
Phasenstatus In Orbit
Besitzer/Staat NINGX/CASC/CN

Große Konstellationen

Loading constellations...